• en Suisse
  • Liste des pays
  • À 7 jours
  • Température de l'eau
  • Carte satellitaire
  • Carte météo
  • Widgets météo
  • user-avatar
    Se connecter

    Météo par heure à Serebryanytsya

    Ce jour, 25 Septembre, Mardi

    Heure Température Précipitation Vent Pression Humidité
    00:00 +5°C° 0 mm 6 m/s 745 mmHg 76%
    01:00 +5°C° 0 mm 6 m/s 745 mmHg 76%
    02:00 +5°C° 0 mm 4 m/s 746 mmHg 84%
    03:00 +5°C° 0 mm 5 m/s 746 mmHg 83%
    04:00 +3°C° 0 mm 5 m/s 747 mmHg 83%
    05:00 +3°C° 0 mm 6 m/s 747 mmHg 82%
    06:00 +3°C° 0 mm 6 m/s 748 mmHg 80%
    07:00 +4°C° 0 mm 7 m/s 748 mmHg 78%
    08:00 +4°C° 0 mm 7 m/s 749 mmHg 75%
    09:00 +6°C° 0 mm 7 m/s 750 mmHg 69%
    10:00 +8°C° 0 mm 7 m/s 750 mmHg 63%
    11:00 +9°C° 0 mm 7 m/s 751 mmHg 58%
    12:00 +9°C° 0.3 mm 7 m/s 751 mmHg 57%
    13:00 +10°C° 0.3 mm 7 m/s 751 mmHg 56%
    14:00 +10°C° 0 mm 7 m/s 752 mmHg 55%
    15:00 +9°C° 0.1 mm 7 m/s 752 mmHg 57%
    16:00 +9°C° 0.1 mm 6 m/s 752 mmHg 59%
    17:00 +9°C° 0.1 mm 6 m/s 753 mmHg 61%
    18:00 +8°C° 0 mm 5 m/s 753 mmHg 64%
    19:00 +7°C° 0 mm 5 m/s 754 mmHg 67%
    20:00 +6°C° 0 mm 4 m/s 754 mmHg 71%
    21:00 +5°C° 0 mm 4 m/s 755 mmHg 71%
    22:00 +5°C° 0 mm 4 m/s 755 mmHg 71%
    23:00 +5°C° 0 mm 4 m/s 756 mmHg 71%

    Demain, 26 Septembre, Mercredi

    Heure Température Précipitation Vent Pression Humidité
    00:00 +4°C° 0 mm 4 m/s 756 mmHg 73%
    01:00 +4°C° 0 mm 3 m/s 757 mmHg 75%
    02:00 +3°C° 0 mm 3 m/s 757 mmHg 77%
    03:00 +3°C° 0 mm 3 m/s 758 mmHg 80%
    04:00 +2°C° 0 mm 3 m/s 758 mmHg 83%
    05:00 +2°C° 0 mm 3 m/s 758 mmHg 86%
    06:00 +3°C° 0 mm 3 m/s 758 mmHg 83%
    07:00 +3°C° 0 mm 3 m/s 759 mmHg 80%
    08:00 +4°C° 0 mm 3 m/s 759 mmHg 77%
    09:00 +7°C° 0 mm 3 m/s 759 mmHg 68%
    10:00 +9°C° 0 mm 3 m/s 759 mmHg 59%
    11:00 +11°C° 0 mm 4 m/s 759 mmHg 50%
    12:00 +11°C° 0 mm 4 m/s 758 mmHg 48%
    13:00 +12°C° 0 mm 4 m/s 758 mmHg 45%
    14:00 +13°C° 0 mm 5 m/s 757 mmHg 43%
    15:00 +12°C° 0 mm 4 m/s 757 mmHg 47%
    16:00 +12°C° 0 mm 4 m/s 756 mmHg 52%
    17:00 +11°C° 0 mm 3 m/s 756 mmHg 56%
    18:00 +11°C° 0 mm 4 m/s 755 mmHg 58%
    19:00 +10°C° 0 mm 4 m/s 755 mmHg 59%
    20:00 +10°C° 0 mm 4 m/s 755 mmHg 60%
    21:00 +9°C° 0.3 mm 5 m/s 754 mmHg 65%
    22:00 +8°C° 0.3 mm 5 m/s 754 mmHg 70%
    23:00 +8°C° 0.3 mm 5 m/s 753 mmHg 74%

    Après-demain, 27 Septembre, Jeudi

    Heure Température Précipitation Vent Pression Humidité
    00:00 +8°C° 0.3 mm 6 m/s 753 mmHg 75%
    01:00 +8°C° 0.3 mm 6 m/s 752 mmHg 75%
    02:00 +8°C° 0.3 mm 6 m/s 752 mmHg 75%
    03:00 +8°C° 0 mm 6 m/s 751 mmHg 72%
    04:00 +9°C° 0 mm 6 m/s 751 mmHg 69%
    05:00 +9°C° 0 mm 6 m/s 750 mmHg 66%
    06:00 +9°C° 0 mm 7 m/s 750 mmHg 65%
    07:00 +9°C° 0 mm 7 m/s 750 mmHg 63%
    08:00 +10°C° 0 mm 7 m/s 750 mmHg 62%
    09:00 +11°C° 0 mm 7 m/s 750 mmHg 62%
    10:00 +11°C° 0 mm 7 m/s 750 mmHg 61%
    11:00 +12°C° 0 mm 7 m/s 750 mmHg 61%
    12:00 +14°C° 0 mm 7 m/s 750 mmHg 62%
    13:00 +15°C° 0 mm 6 m/s 750 mmHg 64%
    14:00 +16°C° 0 mm 6 m/s 750 mmHg 65%
    15:00 +16°C° 0 mm 5 m/s 750 mmHg 67%
    16:00 +17°C° 0 mm 4 m/s 750 mmHg 69%
    17:00 +18°C° 0 mm 4 m/s 749 mmHg 71%
    18:00 +17°C° 0 mm 3 m/s 749 mmHg 74%
    19:00 +16°C° 0 mm 3 m/s 749 mmHg 77%
    20:00 +14°C° 0 mm 3 m/s 749 mmHg 80%
    21:00 +13°C° 0 mm 3 m/s 749 mmHg 82%
    22:00 +13°C° 0 mm 3 m/s 749 mmHg 84%
    23:00 +12°C° 0 mm 4 m/s 749 mmHg 86%

    28 Septembre, Vendredi

    Heure Température Précipitation Vent Pression Humidité
    00:00 +12°C° 0 mm 4 m/s 748 mmHg 85%
    01:00 +12°C° 0 mm 4 m/s 748 mmHg 85%
    02:00 +11°C° 0 mm 4 m/s 747 mmHg 84%
    03:00 +11°C° 0 mm 4 m/s 747 mmHg 80%
    04:00 +11°C° 0 mm 4 m/s 746 mmHg 77%
    05:00 +11°C° 0 mm 4 m/s 746 mmHg 73%
    06:00 +10°C° 0 mm 5 m/s 745 mmHg 70%
    07:00 +12°C° 0 mm 5 m/s 745 mmHg 67%
    08:00 +12°C° 0 mm 5 m/s 745 mmHg 63%
    09:00 +14°C° 0 mm 5 m/s 745 mmHg 60%
    10:00 +16°C° 0 mm 6 m/s 745 mmHg 56%
    11:00 +17°C° 0 mm 6 m/s 745 mmHg 53%
    12:00 +19°C° 0 mm 6 m/s 744 mmHg 51%
    13:00 +20°C° 0 mm 6 m/s 744 mmHg 48%
    14:00 +21°C° 0 mm 6 m/s 744 mmHg 46%
    15:00 +20°C° 0 mm 5 m/s 744 mmHg 52%
    16:00 +19°C° 0 mm 5 m/s 744 mmHg 58%
    17:00 +18°C° 0 mm 4 m/s 744 mmHg 63%
    18:00 +16°C° 0 mm 3 m/s 744 mmHg 72%
    19:00 +13°C° 0 mm 3 m/s 744 mmHg 80%
    20:00 +11°C° 0 mm 3 m/s 745 mmHg 89%
    21:00 +12°C° 0 mm 2 m/s 745 mmHg 88%
    22:00 +12°C° 0 mm 2 m/s 745 mmHg 87%
    23:00 +12°C° 0 mm 2 m/s 745 mmHg 86%

    29 Septembre, Samedi

    Heure Température Précipitation Vent Pression Humidité
    00:00 +12°C° 0.1 mm 2 m/s 746 mmHg 86%
    01:00 +10°C° 0.1 mm 2 m/s 746 mmHg 86%
    02:00 +10°C° 0.1 mm 2 m/s 746 mmHg 85%
    03:00 +10°C° 0.1 mm 2 m/s 746 mmHg 85%
    04:00 +9°C° 0.1 mm 2 m/s 746 mmHg 84%
    05:00 +9°C° 0.1 mm 2 m/s 746 mmHg 83%
    06:00 +9°C° 0 mm 2 m/s 746 mmHg 82%
    07:00 +10°C° 0 mm 2 m/s 747 mmHg 80%
    08:00 +10°C° 0 mm 2 m/s 747 mmHg 78%
    09:00 +12°C° 0 mm 2 m/s 748 mmHg 74%
    10:00 +12°C° 0 mm 2 m/s 748 mmHg 69%
    11:00 +13°C° 0 mm 2 m/s 749 mmHg 64%
    12:00 +13°C° 0.1 mm 3 m/s 749 mmHg 61%
    13:00 +13°C° 0.1 mm 3 m/s 749 mmHg 59%
    14:00 +14°C° 0.1 mm 3 m/s 749 mmHg 56%
    15:00 +14°C° 0 mm 3 m/s 749 mmHg 58%
    16:00 +13°C° 0 mm 3 m/s 749 mmHg 60%
    17:00 +14°C° 0 mm 2 m/s 749 mmHg 62%
    18:00 +13°C° 0 mm 2 m/s 750 mmHg 67%
    19:00 +10°C° 0 mm 2 m/s 750 mmHg 71%
    20:00 +9°C° 0 mm 3 m/s 751 mmHg 75%
    21:00 +9°C° 0 mm 3 m/s 751 mmHg 79%
    22:00 +8°C° 0 mm 3 m/s 751 mmHg 82%
    23:00 +7°C° 0 mm 3 m/s 751 mmHg 86%

    30 Septembre, Dimanche

    Heure Température Précipitation Vent Pression Humidité
    00:00 +7°C° 0 mm 2 m/s 751 mmHg 88%
    01:00 +7°C° 0 mm 2 m/s 752 mmHg 90%
    02:00 +6°C° 0 mm 2 m/s 752 mmHg 93%
    03:00 +6°C° 0 mm 2 m/s 752 mmHg 93%
    04:00 +6°C° 0 mm 2 m/s 752 mmHg 94%
    05:00 +6°C° 0 mm 2 m/s 752 mmHg 94%
    06:00 +6°C° 0 mm 2 m/s 752 mmHg 91%
    07:00 +7°C° 0 mm 2 m/s 752 mmHg 87%
    08:00 +8°C° 0 mm 2 m/s 752 mmHg 83%
    09:00 +10°C° 0 mm 2 m/s 752 mmHg 76%
    10:00 +12°C° 0 mm 3 m/s 752 mmHg 69%
    11:00 +14°C° 0 mm 3 m/s 752 mmHg 61%
    12:00 +14°C° 0 mm 3 m/s 751 mmHg 59%
    13:00 +16°C° 0 mm 2 m/s 751 mmHg 56%
    14:00 +17°C° 0 mm 2 m/s 750 mmHg 54%
    15:00 +17°C° 0 mm 2 m/s 750 mmHg 57%
    16:00 +16°C° 0 mm 2 m/s 750 mmHg 61%
    17:00 +16°C° 0 mm 1 m/s 749 mmHg 64%
    18:00 +15°C° 0 mm 2 m/s 749 mmHg 65%
    19:00 +14°C° 0 mm 2 m/s 749 mmHg 67%
    20:00 +14°C° 0 mm 2 m/s 749 mmHg 68%
    21:00 +13°C° 0 mm 2 m/s 749 mmHg 70%
    22:00 +13°C° 0 mm 2 m/s 749 mmHg 71%
    23:00 +13°C° 0 mm 2 m/s 748 mmHg 73%
    Voir plus